Airport Information

KONO - Ontario Municipal Airport

KONO 251153Z AUTO 00000KT 10SM CLR 02/00 A3026 RMK AO2 SLP258 T00170000 10050 20017 55005 TSNO


  • General Information

  • Coordinates: N 44°1'9"/ W 117°0'46"
  • Location: N/A
  • Surveyed Elevation: 2193 MSL

Operations

Flow Name Active Runways Conditions

Green background denotes normal operations.


Common Frequencies

Callsign Frequency Position Name

More at the Document Center


Charts